TimeMST,TemperatureF,Dew PointF,Humidity,Sea Level PressureIn,VisibilityMPH,Wind Direction,Wind SpeedMPH,Gust SpeedMPH,PrecipitationIn,Events,Conditions,WindDirDegrees,DateUTC
12:54 AM,21.9,10.0,60,30.28,10.0,South,5.8,-,N/A,,Clear,170,2013-02-28 07:54:00
1:54 AM,19.0,10.0,68,30.29,10.0,SSE,4.6,-,N/A,,Clear,160,2013-02-28 08:54:00
2:54 AM,19.0,9.0,65,30.29,10.0,Calm,Calm,-,N/A,,Clear,0,2013-02-28 09:54:00
3:54 AM,14.0,8.1,77,30.30,10.0,Calm,Calm,-,N/A,,Clear,0,2013-02-28 10:54:00
4:54 AM,15.1,7.0,70,30.33,10.0,WSW,3.5,-,N/A,,Clear,250,2013-02-28 11:54:00
5:54 AM,14.0,7.0,74,30.38,10.0,South,3.5,-,N/A,,Clear,180,2013-02-28 12:54:00
6:54 AM,16.0,7.0,68,30.42,10.0,South,6.9,-,N/A,,Clear,180,2013-02-28 13:54:00
7:54 AM,23.0,10.9,60,30.42,10.0,SSW,6.9,-,N/A,,Clear,200,2013-02-28 14:54:00
8:54 AM,28.0,10.0,47,30.43,10.0,NNW,3.5,-,N/A,,Clear,330,2013-02-28 15:54:00
9:54 AM,32.0,9.0,38,30.41,10.0,NNW,3.5,-,N/A,,Clear,340,2013-02-28 16:54:00
10:54 AM,34.0,6.1,31,30.40,10.0,Calm,Calm,-,N/A,,Clear,0,2013-02-28 17:54:00
11:54 AM,39.0,5.0,24,30.37,10.0,Calm,Calm,-,N/A,,Clear,0,2013-02-28 18:54:00
12:54 PM,43.0,3.0,19,30.34,10.0,Variable,4.6,-,N/A,,Clear,0,2013-02-28 19:54:00
1:54 PM,45.0,3.9,18,30.32,10.0,Variable,6.9,-,N/A,,Clear,0,2013-02-28 20:54:00
2:54 PM,46.0,1.9,16,30.32,10.0,NW,5.8,-,N/A,,Clear,310,2013-02-28 21:54:00
3:54 PM,48.0,1.9,15,30.34,10.0,NW,9.2,17.3,N/A,,Clear,320,2013-02-28 22:54:00
4:54 PM,48.2,1.4,15,30.31,10.0,NNW,5.8,-,N/A,,Clear,330,2013-02-28 23:54:00
5:54 PM,46.0,-2.0,14,30.35,10.0,NW,15.0,-,N/A,,Clear,310,2013-03-01 00:54:00
6:54 PM,36.0,5.0,27,30.40,10.0,West,8.1,-,N/A,,Clear,270,2013-03-01 01:54:00
7:54 PM,33.1,6.1,32,30.39,10.0,West,10.4,-,N/A,,Clear,280,2013-03-01 02:54:00
8:54 PM,35.1,3.9,27,30.36,10.0,WSW,9.2,-,N/A,,Clear,250,2013-03-01 03:54:00
9:54 PM,32.0,3.9,31,30.40,10.0,Calm,Calm,-,N/A,,Clear,0,2013-03-01 04:54:00
10:54 PM,27.0,7.0,43,30.42,10.0,SSE,6.9,-,N/A,,Clear,150,2013-03-01 05:54:00
11:54 PM,28.0,7.0,41,30.40,10.0,South,5.8,-,N/A,,Clear,190,2013-03-01 06:54:00